EW1744 Weather Reports


time (UTC)temp
F
wind
direction
speed
knots
gust
knots
rain 1hr
in
rain 24hr
in
rain mn
in
humidity
%
barometer
mb
20260508004627 56 317 0.0 1.7 0.00 0.00 0.00 40 1006.7
20260508004346 56 302 0.0 6.1 0.00 0.00 0.00 39 1006.7
20260508003627 56 326 0.0 6.1 0.00 0.00 0.00 38 1006.6
20260508003127 57 305 0.0 6.1 0.00 0.00 0.00 38 1006.4
20260508002850 57 265 0.9 6.1 0.00 0.00 0.00 38 1006.4
20260508002341 57 309 0.9 3.5 0.00 0.00 0.00 38 1006.4
20260508001626 57 307 0.9 4.3 0.00 0.00 0.00 37 1006.3
20260508001125 58 265 0.9 4.3 0.00 0.00 0.00 37 1006.3
20260508000625 58 25 0.9 4.3 0.00 0.00 0.00 37 1006.2
20260508000124 58 345 0.9 4.3 0.00 0.00 0.00 36 1006.1
20260507235625 58 309 0.9 5.2 0.00 0.00 0.00 36 1006.1
20260507235126 58 285 0.0 5.2 0.00 0.00 0.00 36 1006.1
20260507234626 58 330 0.9 5.2 0.00 0.00 0.00 36 1006.1
20260507234125 59 352 0.9 5.2 0.00 0.00 0.00 36 1006.0
20260507233626 59 302 0.9 3.5 0.00 0.00 0.00 35 1005.9
20260507233345 59 334 0.9 6.1 0.00 0.00 0.00 35 1005.8
20260507232622 59 287 1.7 6.1 0.00 0.00 0.00 34 1005.8
20260507232342 60 323 2.6 7.0 0.00 0.00 0.00 33 1005.8
20260507231622 60 355 2.6 7.0 0.00 0.00 0.00 33 1005.8
20260507231345 60 303 1.7 7.8 0.00 0.00 0.00 33 1005.8
20260507230624 60 332 1.7 7.8 0.00 0.00 0.00 33 1005.8
20260507230123 60 311 2.6 7.8 0.00 0.00 0.00 33 1005.7
20260507225623 61 278 2.6 7.8 0.00 0.00 0.00 32 1005.7
20260507225123 61 320 2.6 9.6 0.00 0.00 0.00 31 1005.6
20260507224852 62 314 3.5 9.6 0.00 0.00 0.00 31 1005.7
20260507224122 62 4 3.5 9.6 0.00 0.00 0.00 31 1005.5
20260507223619 62 285 3.5 9.6 0.00 0.00 0.00 30 1005.4
20260507223121 62 224 2.6 8.7 0.00 0.00 0.00 30 1005.4
20260507222621 63 319 2.6 7.8 0.00 0.00 0.00 31 1005.4
20260507222120 62 202 3.5 12.2 0.00 0.00 0.00 31 1005.2
20260507221621 63 350 3.5 12.2 0.00 0.00 0.00 30 1005.1
20260507221121 63 310 3.5 12.2 0.00 0.00 0.00 30 1005.0
20260507220621 63 330 3.5 12.2 0.00 0.00 0.00 29 1005.1
20260507220122 63 344 2.6 8.7 0.00 0.00 0.00 30 1005.0
20260507215622 64 305 1.7 7.0 0.00 0.00 0.00 30 1005.0
20260507215121 64 282 1.7 8.7 0.00 0.00 0.00 31 1004.9
20260507214620 63 310 3.5 10.4 0.00 0.00 0.00 30 1004.9
20260507214344 62 15 4.3 13.0 0.00 0.00 0.00 31 1005.0
20260507213618 63 309 3.5 13.0 0.00 0.00 0.00 30 1005.0
20260507213118 63 338 3.5 11.3 0.00 0.00 0.00 30 1004.9
20260507212617 63 283 3.5 11.3 0.00 0.00 0.00 31 1004.9
20260507212118 63 300 3.5 11.3 0.00 0.00 0.00 31 1005.0
20260507211619 63 326 1.7 11.3 0.00 0.00 0.00 30 1005.0
20260507211344 64 24 2.6 7.8 0.00 0.00 0.00 30 1004.9
20260507210618 63 295 2.6 7.8 0.00 0.00 0.00 31 1004.9
20260507210118 64 342 3.5 10.4 0.00 0.00 0.00 31 1005.0
20260507205618 63 323 3.5 10.4 0.00 0.00 0.00 31 1005.0
20260507205118 64 344 2.6 7.0 0.00 0.00 0.00 32 1004.9
20260507204619 64 290 2.6 7.8 0.00 0.00 0.00 32 1004.8
20260507204119 64 345 1.7 7.8 0.00 0.00 0.00 32 1004.8
20260507203617 64 335 3.5 10.4 0.00 0.00 0.00 32 1004.9
20260507203115 63 290 3.5 10.4 0.00 0.00 0.00 31 1004.7
20260507202617 64 311 2.6 8.7 0.00 0.00 0.00 31 1004.8
20260507202117 65 6 2.6 8.7 0.00 0.00 0.00 32 1004.9
20260507201617 64 276 2.6 8.7 0.00 0.00 0.00 33 1004.9
20260507201118 65 345 2.6 8.7 0.00 0.00 0.00 33 1004.9
20260507200838 64 301 2.6 8.7 0.00 0.00 0.00 32 1004.9
20260507200117 64 288 2.6 8.7 0.00 0.00 0.00 33 1005.0
20260507195617 64 325 2.6 8.7 0.00 0.00 0.00 33 1005.0
20260507195117 64 323 1.7 8.7 0.00 0.00 0.00 33 1005.1
20260507194618 63 342 2.6 13.9 0.00 0.00 0.00 33 1005.0
20260507194114 64 307 2.6 13.9 0.00 0.00 0.00 33 1005.1
20260507193614 63 349 3.5 13.9 0.00 0.00 0.00 35 1005.1
20260507193112 63 321 3.5 13.9 0.00 0.00 0.00 33 1005.3
20260507192616 64 356 3.5 13.9 0.00 0.00 0.00 34 1005.3
20260507192610 64 297 3.5 13.9 0.00 0.00 0.00 32 1005.2
20260507191612 63 290 3.5 13.0 0.00 0.00 0.00 34 1005.3
20260507191111 64 281 2.6 13.0 0.00 0.00 0.00 33 1005.3
20260507190611 64 310 3.5 13.0 0.00 0.00 0.00 34 1005.2
20260507190338 64 276 3.5 12.2 0.00 0.00 0.00 32 1005.3
20260507185611 64 276 2.6 9.6 0.00 0.00 0.00 33 1005.4
20260507185112 64 273 3.5 9.6 0.00 0.00 0.00 33 1005.3
20260507185102 64 271 3.5 9.6 0.00 0.00 0.00 32 1005.3
20260507184554 65 304 2.6 7.8 0.00 0.00 0.00 30 1005.3
20260507183835 65 249 2.6 7.0 0.00 0.00 0.00 31 1005.4
20260507183108 65 359 1.7 6.1 0.00 0.00 0.00 34 1005.3
20260507182608 64 307 2.6 11.3 0.00 0.00 0.00 33 1005.3
20260507182344 63 293 2.6 11.3 0.00 0.00 0.00 36 1005.3
20260507181608 63 292 4.3 11.3 0.00 0.00 0.00 36 1005.5
20260507181108 63 341 3.5 11.3 0.00 0.00 0.00 36 1005.4
20260507180608 63 266 3.5 9.6 0.00 0.00 0.00 37 1005.4
20260507180338 63 196 2.6 9.6 0.00 0.00 0.00 39 1005.4
20260507175609 63 291 2.6 8.7 0.00 0.00 0.00 37 1005.5
20260507175109 63 8 2.6 11.3 0.00 0.00 0.00 40 1005.3
20260507174609 63 279 2.6 11.3 0.00 0.00 0.00 37 1005.4
20260507174108 62 299 3.5 11.3 0.00 0.00 0.00 39 1005.4
20260507173606 62 283 3.5 11.3 0.00 0.00 0.00 40 1005.4
20260507173105 62 21 2.6 10.4 0.00 0.00 0.00 41 1005.4
20260507172602 62 269 2.6 10.4 0.00 0.00 0.00 41 1005.4
20260507172103 62 269 3.5 10.4 0.00 0.00 0.00 41 1005.6
20260507171831 62 291 3.5 10.4 0.00 0.00 0.00 42 1005.6
20260507171103 62 292 3.5 9.6 0.00 0.00 0.00 48 1005.8
20260507170602 62 352 3.5 12.2 0.00 0.00 0.00 49 1005.8
20260507170115 62 301 3.5 12.2 0.00 0.00 0.00 46 1005.8
20260507165603 62 279 3.5 12.2 0.00 0.00 0.00 45 1005.9
20260507165327 61 287 2.6 12.2 0.00 0.00 0.00 51 1005.9
20260507164604 61 272 1.7 11.3 0.00 0.00 0.00 52 1006.1
20260507164104 61 321 2.6 11.3 0.00 0.00 0.00 53 1006.1
20260507163605 60 256 4.3 11.3 0.00 0.00 0.00 53 1006.2
20260507163332 60 314 3.5 11.3 0.00 0.00 0.00 52 1006.2
20260507162826 62 358 2.6 9.6 0.00 0.00 0.00 51 1006.2
20260507162322 62 231 1.7 6.1 0.00 0.00 0.00 50 1006.2
20260507161601 61 275 1.7 6.1 0.00 0.00 0.00 50 1006.3
20260507161321 61 349 2.6 6.1 0.00 0.00 0.00 50 1006.3
20260507160829 61 278 2.6 6.1 0.00 0.00 0.00 47 1006.4
20260507160113 61 191 2.6 9.6 0.00 0.00 0.00 51 1006.4
20260507155601 60 299 2.6 9.6 0.00 0.00 0.00 52 1006.5
20260507155322 60 338 2.6 7.8 0.00 0.00 0.00 52 1006.5
20260507154601 60 349 2.6 7.8 0.00 0.00 0.00 50 1006.6
20260507154102 60 258 2.6 7.8 0.00 0.00 0.00 51 1006.8
20260507153601 61 299 1.7 7.8 0.00 0.00 0.00 49 1006.7
20260507153101 60 265 2.6 9.6 0.00 0.00 0.00 53 1006.7
20260507152601 59 227 2.6 9.6 0.00 0.00 0.00 54 1006.9
20260507152058 60 290 2.6 8.7 0.00 0.00 0.00 52 1007.0
20260507151559 60 341 2.6 8.7 0.00 0.00 0.00 52 1007.0
20260507151059 59 298 3.5 9.6 0.00 0.00 0.00 52 1007.1
20260507150821 59 296 4.3 9.6 0.00 0.00 0.00 53 1007.1
20260507150108 60 108 3.5 12.2 0.00 0.00 0.00 54 1007.1
20260507145600 60 287 2.6 12.2 0.00 0.00 0.00 52 1007.1
20260507145059 60 299 2.6 12.2 0.00 0.00 0.00 54 1007.1
20260507144825 60 289 2.6 12.2 0.00 0.00 0.00 53 1007.0
20260507144100 60 260 1.7 6.1 0.00 0.00 0.00 54 1007.0
20260507143600 60 312 1.7 6.1 0.00 0.00 0.00 53 1007.0
20260507143100 59 31 2.6 6.1 0.00 0.00 0.00 54 1007.0
20260507142600 59 359 1.7 6.1 0.00 0.00 0.00 53 1007.0
20260507142100 59 293 0.9 6.1 0.00 0.00 0.00 55 1006.9
20260507141600 59 20 0.9 6.1 0.00 0.00 0.00 55 1006.9
20260507141100 58 305 0.9 6.1 0.00 0.00 0.00 56 1007.0
20260507140601 58 306 1.7 5.2 0.00 0.00 0.00 57 1006.9
20260507140111 58 277 1.7 6.1 0.00 0.00 0.00 58 1007.0
20260507135601 58 293 0.9 6.1 0.00 0.00 0.00 56 1007.0
20260507135057 58 303 1.7 6.1 0.00 0.00 0.00 59 1007.1
20260507134557 58 317 1.7 6.1 0.00 0.00 0.00 57 1007.1
20260507134058 57 330 0.9 6.1 0.00 0.00 0.00 60 1007.2
20260507133558 56 300 0.9 6.1 0.00 0.00 0.00 61 1007.4
20260507133057 56 314 1.7 6.1 0.00 0.00 0.00 62 1007.4
20260507132557 56 295 1.7 7.8 0.00 0.00 0.00 63 1007.5
20260507132057 56 305 1.7 7.8 0.00 0.00 0.00 62 1007.5
20260507131557 55 333 1.7 7.8 0.00 0.00 0.00 62 1007.6
20260507131057 55 212 1.7 7.8 0.00 0.00 0.00 63 1007.6
20260507130557 55 283 1.7 6.1 0.00 0.00 0.00 65 1007.7
20260507130329 54 304 1.7 6.1 0.00 0.00 0.00 66 1007.7
20260507125559 54 326 1.7 5.2 0.00 0.00 0.00 66 1007.7
20260507125055 53 324 1.7 6.1 0.00 0.00 0.00 66 1007.6
20260507124552 53 286 1.7 6.1 0.00 0.00 0.00 68 1007.8
20260507124052 53 305 1.7 5.2 0.00 0.00 0.00 70 1007.8
20260507123552 53 304 1.7 5.2 0.00 0.00 0.00 69 1008.0
20260507123050 53 271 1.7 5.2 0.00 0.00 0.00 71 1007.9
20260507122550 52 299 1.7 5.2 0.00 0.00 0.00 72 1008.0
20260507122051 52 310 0.9 5.2 0.00 0.00 0.00 73 1008.0
20260507121816 52 302 0.9 5.2 0.00 0.00 0.00 73 1007.9
20260507121051 51 295 0.9 5.2 0.00 0.00 0.00 75 1007.9
20260507120551 51 295 0.9 5.2 0.00 0.00 0.00 76 1007.8
20260507120106 51 288 0.9 3.5 0.00 0.00 0.00 76 1008.0
20260507115551 51 291 0.9 4.3 0.00 0.00 0.00 77 1007.9
20260507115052 50 264 0.9 4.3 0.00 0.00 0.00 78 1007.8
20260507114812 49 303 0.0 4.3 0.00 0.00 0.00 80 1007.6
20260507114053 49 329 0.9 4.3 0.00 0.00 0.00 80 1007.5
20260507113553 49 349 0.9 4.3 0.00 0.00 0.00 79 1007.5
20260507113307 49 314 0.9 4.3 0.00 0.00 0.00 80 1007.6
20260507112554 49 2 0.9 5.2 0.00 0.00 0.00 80 1007.6
20260507112306 49 351 1.7 5.2 0.00 0.00 0.00 80 1007.8
20260507111542 49 305 0.9 5.2 0.00 0.00 0.00 80 1007.9
20260507111042 49 329 1.7 7.8 0.00 0.00 0.00 80 1007.5
20260507110543 49 234 0.9 7.8 0.00 0.00 0.00 80 1007.6
20260507110053 49 291 0.9 7.8 0.00 0.00 0.00 80 1007.2
20260507105545 49 321 0.9 7.8 0.00 0.00 0.00 80 1007.5
20260507105041 49 286 0.9 7.8 0.00 0.00 0.00 80 1007.2
20260507104807 49 340 1.7 7.8 0.00 0.00 0.00 81 1007.3
20260507104040 49 321 1.7 7.8 0.00 0.00 0.00 80 1007.1
20260507103539 49 288 0.9 7.8 0.00 0.00 0.00 81 1007.2
20260507103307 49 309 0.9 5.2 0.00 0.00 0.00 81 1007.3
20260507102536 49 296 0.9 5.2 0.00 0.00 0.00 81 1007.2
20260507102031 49 298 0.9 5.2 0.00 0.00 0.00 82 1007.3
20260507101532 49 298 0.9 5.2 0.00 0.00 0.00 82 1007.3
20260507101253 49 295 1.7 5.2 0.00 0.00 0.00 82 1007.2
20260507100526 49 324 1.7 5.2 0.00 0.00 0.00 82 1007.6
20260507100027 49 309 0.9 5.2 0.00 0.00 0.00 82 1007.1
20260507095526 49 294 0.9 5.2 0.00 0.00 0.00 83 1007.3
20260507095026 49 271 0.9 5.2 0.00 0.00 0.00 83 1007.4
20260507094526 49 310 1.7 6.1 0.00 0.00 0.00 83 1007.3
20260507094024 49 309 1.7 6.1 0.00 0.00 0.00 83 1007.2
20260507093524 49 295 0.9 4.3 0.00 0.00 0.00 84 1007.1
20260507093023 49 298 0.9 6.1 0.00 0.00 0.00 84 1007.1
20260507092525 49 11 0.9 6.1 0.00 0.00 0.00 84 1007.1
20260507092034 49 299 0.9 5.2 0.00 0.00 0.00 85 1007.3
20260507091531 49 326 0.9 5.2 0.00 0.00 0.00 85 1006.8
20260507091018 49 286 0.9 5.2 0.00 0.00 0.00 85 1007.1
20260507090246 49 303 0.0 4.3 0.00 0.00 0.00 85 1006.9
20260507085516 49 302 0.9 4.3 0.00 0.00 0.00 85 1007.2
20260507085016 49 294 0.9 4.3 0.00 0.00 0.00 84 1006.8
20260507085005 49 327 0.0 4.3 0.00 0.00 0.00 84 1006.7
20260507084015 49 313 0.0 2.6 0.00 0.00 0.00 84 1006.6
20260507083515 49 335 0.9 2.6 0.00 0.00 0.00 83 1006.8
20260507083016 50 294 0.9 2.6 0.00 0.00 0.00 83 1006.7
20260507082514 50 262 0.9 4.3 0.00 0.00 0.00 82 1006.4
20260507082014 50 39 1.7 7.0 0.00 0.00 0.00 81 1006.5
20260507081737 51 335 1.7 7.0 0.00 0.00 0.00 80 1006.6
20260507081012 51 33 2.6 7.8 0.00 0.00 0.00 79 1006.5
20260507080514 51 335 2.6 7.8 0.00 0.00 0.00 79 1006.8
20260507080012 51 319 2.6 7.8 0.00 0.00 0.00 80 1006.6
20260507075513 51 302 2.6 7.8 0.00 0.00 0.00 80 1006.5
20260507075231 51 288 1.7 7.0 0.00 0.00 0.00 80 1006.3
20260507074738 51 333 2.6 7.0 0.00 0.00 0.00 81 1006.1
20260507074008 51 278 2.6 7.0 0.00 0.00 0.00 81 1006.3
20260507073508 51 291 1.7 7.0 0.00 0.00 0.00 81 1006.3
20260507073008 51 300 1.7 7.0 0.00 0.00 0.00 80 1006.0
20260507072507 51 301 2.6 7.0 0.00 0.00 0.00 80 1006.2
20260507072009 51 287 2.6 7.8 0.00 0.00 0.00 80 1006.3
20260507071507 51 291 2.6 7.8 0.00 0.00 0.00 80 1006.6
20260507071002 51 315 1.7 7.8 0.00 0.00 0.00 80 1006.1
20260507070956 51 317 1.7 7.8 0.00 0.00 0.00 80 1006.0
20260507070004 51 329 1.7 7.0 0.00 0.00 0.00 80 1006.1
20260507065503 52 345 2.6 7.0 0.00 0.00 0.00 80 1006.1
20260507065016 52 269 2.6 7.0 0.00 0.00 0.00 80 1006.3
20260507064502 52 300 2.6 7.0 0.00 0.00 0.00 79 1005.8
20260507064002 52 288 2.6 5.2 0.00 0.00 0.00 79 1005.9
20260507063728 52 306 1.7 5.2 0.00 0.00 0.00 79 1005.9
20260507063003 52 274 1.7 7.0 0.00 0.00 0.00 80 1005.8
20260507062728 52 329 1.7 7.0 0.00 0.00 0.00 80 1005.7
20260507062239 52 298 2.6 7.8 0.00 0.00 0.00 79 1005.7
20260507061504 52 319 2.6 7.8 0.00 0.00 0.00 79 1005.8
20260507060957 52 301 1.7 8.7 0.00 0.00 0.00 80 1005.7
20260507060457 52 288 2.6 8.7 0.00 0.00 0.00 80 1005.7
20260507055957 53 20 1.7 7.0 0.00 0.00 0.00 80 1006.1
20260507055457 53 358 1.7 6.1 0.00 0.00 0.00 80 1006.0
20260507054958 53 307 0.9 6.1 0.00 0.00 0.00 80 1006.0
20260507054459 53 332 0.9 3.5 0.00 0.00 0.00 81 1006.1
20260507054001 53 348 0.9 6.1 0.00 0.00 0.00 81 1005.9
20260507053501 53 342 0.9 6.1 0.00 0.00 0.00 81 1006.1
20260507053001 53 304 0.9 6.1 0.00 0.00 0.00 81 1006.1
20260507052500 53 320 0.9 6.1 0.00 0.00 0.00 81 1005.9
20260507051958 54 323 0.9 6.1 0.00 0.00 0.00 81 1005.8
20260507051458 54 321 0.9 6.1 0.00 0.00 0.00 82 1005.5
20260507051216 54 319 1.7 6.1 0.00 0.00 0.00 81 1005.7
20260507050453 54 321 1.7 6.1 0.00 0.00 0.00 81 1005.7
20260507045951 54 333 1.7 6.1 0.00 0.00 0.00 81 1005.7
20260507045450 54 283 1.7 6.1 0.00 0.00 0.00 81 1005.7
20260507044948 55 311 1.7 6.1 0.00 0.00 0.00 82 1005.5
20260507044447 55 325 0.9 5.2 0.00 0.00 0.00 82 1005.7
20260507043947 55 46 0.9 7.0 0.00 0.00 0.00 82 1005.8
20260507043713 55 284 1.7 7.0 0.00 0.00 0.00 82 1006.0
20260507042947 55 274 1.7 7.0 0.00 0.00 0.00 82 1005.9
20260507042447 56 257 1.7 7.0 0.00 0.00 0.00 81 1005.8
20260507041947 56 340 1.7 5.2 0.00 0.00 0.00 81 1005.5
20260507041447 56 327 0.9 4.3 0.00 0.00 0.00 81 1005.4
20260507040948 56 336 1.7 12.2 0.00 0.00 0.00 81 1005.4
20260507040446 57 293 2.6 12.2 0.00 0.00 0.00 82 1005.3
20260507040203 57 319 3.5 12.2 0.00 0.00 0.00 82 1005.2
20260507035707 57 329 3.5 12.2 0.00 0.00 0.00 83 1005.1
20260507034942 58 294 2.6 7.8 0.00 0.00 0.00 85 1005.0
20260507034700 58 309 1.7 11.3 0.00 0.00 0.00 86 1004.9
20260507034211 59 345 2.6 11.3 0.00 0.00 0.00 87 1004.8
20260507033443 59 309 3.5 11.3 0.00 0.00 0.00 87 1004.8
20260507032956 59 311 2.6 11.3 0.00 0.00 0.00 88 1005.0
20260507032930 60 284 1.7 7.0 0.00 0.00 0.00 89 1005.0
20260507031943 60 281 0.9 4.3 0.00 0.00 0.00 90 1004.9
20260507031442 60 322 1.7 6.1 0.00 0.00 0.00 90 1004.8
20260507031204 60 327 2.6 6.1 0.00 0.00 0.00 90 1004.6
20260507030441 60 215 1.7 6.1 0.00 0.00 0.00 90 1004.4
20260507025941 60 288 1.7 6.1 0.00 0.00 0.00 90 1004.4
20260507025441 60 300 1.7 5.2 0.00 0.00 0.00 90 1004.3
20260507024941 60 266 1.7 4.3 0.00 0.00 0.00 90 1004.3
20260507024713 60 213 0.9 6.1 0.00 0.00 0.00 90 1004.3
20260507023955 60 288 1.7 6.1 0.00 0.00 0.00 90 1004.3
20260507023442 60 295 1.7 6.1 0.00 0.00 0.00 90 1004.3
20260507022940 60 297 1.7 6.1 0.00 0.00 0.00 90 1004.4
20260507022440 60 283 1.7 5.2 0.00 0.00 0.00 90 1004.4
20260507022201 60 335 1.7 5.2 0.00 0.00 0.00 90 1004.3
20260507021440 60 270 1.7 5.2 0.00 0.00 0.00 90 1004.5
20260507020939 60 298 1.7 5.2 0.00 0.00 0.00 90 1004.5
20260507020439 60 255 1.7 5.2 0.00 0.00 0.00 90 1004.6
20260507015939 60 248 1.7 5.2 0.00 0.00 0.00 90 1004.7
20260507015439 60 217 1.7 5.2 0.00 0.00 0.00 91 1004.6
20260507014938 60 330 1.7 5.2 0.00 0.00 0.00 91 1004.7
20260507014438 60 257 1.7 5.2 0.00 0.00 0.00 91 1004.8
20260507013938 60 263 1.7 5.2 0.00 0.00 0.00 91 1004.8
20260507013438 60 295 1.7 6.1 0.00 0.00 0.00 91 1004.8
20260507012938 59 262 1.7 6.1 0.00 0.00 0.00 92 1004.9
20260507012438 59 234 0.9 5.2 0.00 0.00 0.00 92 1004.8
20260507012155 59 264 0.9 5.2 0.00 0.00 0.00 91 1004.9
20260507011703 58 276 0.0 2.6 0.00 0.00 0.00 91 1005.0
20260507010937 58 264 0.0 2.6 0.00 0.00 0.00 91 1004.9
20260507010708 58 262 0.0 0.9 0.00 0.00 0.00 91 1004.9
20260507010417 58 238 0.0 0.9 0.00 0.00 0.00 91 1005.0
20260507005437 58 266 0.0 0.9 0.00 0.00 0.00 91 1005.0
20260507005155 58 266 0.0 0.9 0.00 0.00 0.00 91 1005.1